Change the Weather History Date:

Sunday, February 23, 2014

  Actual Average Record
Temperature  
Mean Temperature 44 °F -  
Max Temperature 52 °F 39 °F 54 °F (1963)
Min Temperature 37 °F 19 °F -4 °F (1976)
Degree Days  
Heating Degree Days 20    
Moisture  
Dew Point 24 °F    
Average Humidity 48    
Maximum Humidity 73    
Minimum Humidity 31    
Precipitation  
Precipitation 0.00 in - - ()
Sea Level Pressure  
Sea Level Pressure 29.99 in    
Wind  
Wind Speed 7 mph (SW)    
Max Wind Speed 13 mph    
Max Gust Speed 24 mph    
Visibility 10 miles    
Events      
Averages and records for this station are not official NWS values.
T = Trace of Precipitation, MM = Missing Value Source: NWS Daily Summary

Daily Weather History Graph

Daily Weather History Graph

Search for Another Location

Airport or City:

Trip Planner

Search our weather history database for the weather conditions in past years. The results will help you decide how hot, cold, wet, or windy it might be!

Date:

Astronomy

Feb. 23, 2014 Rise Set
Actual Time 7:11 AM MST 6:10 PM MST
Civil Twilight 6:43 AM MST 6:38 PM MST
Nautical Twilight 6:10 AM MST 7:11 PM MST
Astronomical Twilight 5:38 AM MST 7:43 PM MST
Moon 2:16 AM MST (2/23) 12:13 PM MST (2/23)
Length of Visible Light 11h 55m
Length of Day
10h 59m
Last Quarter, 38% of the Moon is Illuminated
Feb 23
Last Quarter
Mar 1
New
Mar 8
First Quarter
Mar 16
Full
Mar 23
Last Quarter

Hourly Weather History & Observations

Time (MST) Temp. Windchill Dew Point Humidity Pressure Visibility Wind Dir Wind Speed Gust Speed Precip Events Conditions
12:51 AM 42.1 °F 36.6 °F 26.1 °F 53% 29.97 in 10.0 mi SSW 9.2 mph - N/A   Overcast
1:51 AM 42.1 °F 36.6 °F 23.0 °F 47% 29.97 in 10.0 mi SW 9.2 mph - N/A   Overcast
2:51 AM 41.0 °F 35.8 °F 24.1 °F 51% 29.97 in 10.0 mi WSW 8.1 mph - N/A   Overcast
3:51 AM 39.9 °F - 24.1 °F 53% 29.98 in 10.0 mi Calm Calm - N/A   Mostly Cloudy
4:51 AM 37.9 °F 34.4 °F 24.1 °F 57% 29.99 in 10.0 mi ESE 4.6 mph - N/A   Scattered Clouds
5:51 AM 37.9 °F - 25.0 °F 60% 30.01 in 10.0 mi Calm Calm - N/A   Overcast
6:51 AM 39.0 °F 34.8 °F 24.1 °F 55% 30.01 in 10.0 mi ESE 5.8 mph - N/A   Overcast
7:51 AM 37.0 °F 33.3 °F 27.0 °F 67% 30.05 in 10.0 mi NNW 4.6 mph - N/A   Overcast
8:51 AM 37.9 °F 35.5 °F 28.0 °F 68% 30.06 in 10.0 mi NE 3.5 mph - N/A   Overcast
9:51 AM 41.0 °F 37.1 °F 27.0 °F 57% 30.05 in 10.0 mi NNW 5.8 mph - N/A   Overcast
10:51 AM 46.9 °F - 27.0 °F 46% 30.05 in 10.0 mi North 5.8 mph - N/A   Mostly Cloudy
11:51 AM 50.0 °F - 23.0 °F 35% 30.02 in 10.0 mi WNW 9.2 mph 19.6 mph N/A   Clear
12:51 PM 52.0 °F - 23.0 °F 32% 30.00 in 10.0 mi West 10.4 mph 20.7 mph N/A   Clear
1:41 PM 52.0 °F - 21.9 °F 31% 30.02 in 10.0 mi WNW 12.7 mph 21.9 mph N/A   Clear
1:51 PM 52.0 °F - 21.9 °F 31% 29.98 in 10.0 mi West 12.7 mph 24.2 mph N/A   Clear
2:51 PM 52.0 °F - 21.9 °F 31% 29.97 in 10.0 mi West 12.7 mph - N/A   Clear
3:51 PM 51.1 °F - 21.9 °F 32% 29.96 in 10.0 mi South 8.1 mph - N/A   Clear
4:51 PM 51.1 °F - 21.0 °F 31% 29.96 in 10.0 mi South 9.2 mph - N/A   Clear
5:51 PM 48.9 °F - 21.9 °F 35% 29.96 in 10.0 mi South 4.6 mph - N/A   Clear
6:51 PM 46.0 °F 41.4 °F 23.0 °F 40% 29.96 in 10.0 mi SSE 9.2 mph - N/A   Clear
7:51 PM 46.0 °F 42.5 °F 21.0 °F 37% 29.97 in 10.0 mi SE 6.9 mph - N/A   Clear
8:51 PM 37.0 °F 30.4 °F 26.1 °F 65% 30.00 in 10.0 mi North 9.2 mph - N/A   Clear
9:51 PM 39.0 °F 35.7 °F 26.1 °F 60% 29.99 in 10.0 mi ESE 4.6 mph - N/A   Clear
10:51 PM 39.0 °F 35.7 °F 27.0 °F 62% 29.97 in 10.0 mi ENE 4.6 mph - N/A   Clear
11:51 PM 37.0 °F 32.4 °F 28.9 °F 73% 29.97 in 10.0 mi SE 5.8 mph - N/A   Clear